EW2345 Weather Reports


Display with metric or nautical units.
time (UTC)temp
F
wind
direction
speed
MPH
gust
MPH
rain 1hr
in
rain 24hr
in
rain mn
in
humidity
%
barometer
mb
20210918150051 67 78 6.0 13.0 0.00 0.04 0.01 56 1020.1
20210918145550 66 36 6.0 12.0 0.00 0.04 0.01 58 1020.1
20210918145051 67 31 6.0 12.0 0.00 0.04 0.01 55 1020.1
20210918144551 67 12 5.0 9.0 0.00 0.04 0.01 57 1020.1
20210918144051 66 8 6.0 9.0 0.00 0.04 0.01 58 1020.2
20210918143551 66 3 7.0 12.0 0.00 0.04 0.01 58 1020.2
20210918143051 67 28 4.0 8.0 0.00 0.04 0.01 58 1020.2
20210918142551 66 41 5.0 9.0 0.00 0.04 0.01 60 1020.2
20210918142050 66 37 9.0 12.0 0.00 0.05 0.01 59 1020.2
20210918141551 66 45 6.0 12.0 0.00 0.05 0.01 60 1020.1
20210918141051 66 15 3.0 10.0 0.00 0.05 0.01 60 1020.2
20210918140551 66 33 6.0 10.0 0.00 0.05 0.01 59 1020.2
20210918140051 66 66 5.0 9.0 0.00 0.05 0.01 59 1020.2
20210918135553 67 40 7.0 13.0 0.00 0.05 0.01 59 1020.3
20210918135051 66 46 7.0 12.0 0.00 0.05 0.01 59 1020.3
20210918134551 65 74 3.0 8.0 0.00 0.05 0.01 62 1020.4
20210918134051 64 38 5.0 9.0 0.00 0.05 0.01 63 1020.4
20210918133550 64 40 5.0 8.0 0.00 0.05 0.01 64 1020.5
20210918133051 64 69 5.0 10.0 0.00 0.05 0.01 66 1020.5
20210918132551 64 40 10.0 15.0 0.00 0.05 0.01 64 1020.5
20210918132051 64 37 8.0 16.0 0.00 0.05 0.01 66 1020.5
20210918131551 64 72 7.0 14.0 0.00 0.05 0.01 66 1020.5
20210918131051 64 40 9.0 15.0 0.00 0.05 0.01 66 1020.6
20210918130550 64 68 6.0 12.0 0.00 0.05 0.01 65 1020.5
20210918130051 65 51 7.0 12.0 0.00 0.05 0.01 64 1020.5
20210918125551 65 57 5.0 10.0 0.00 0.05 0.01 65 1020.5
20210918125051 66 82 6.0 10.0 0.00 0.05 0.01 63 1020.5
20210918124551 66 77 1.0 7.0 0.00 0.05 0.01 66 1020.5
20210918124051 66 84 4.0 9.0 0.00 0.05 0.01 69 1020.5
20210918123550 64 43 3.0 6.0 0.00 0.05 0.01 67 1020.5
20210918123051 64 82 1.0 5.0 0.00 0.05 0.01 67 1020.6
20210918122551 65 74 3.0 8.0 0.00 0.05 0.01 67 1020.6
20210918122051 64 28 3.0 7.0 0.00 0.05 0.01 67 1020.6
20210918121551 64 9 3.0 7.0 0.00 0.05 0.01 69 1020.6
20210918121051 64 82 1.0 5.0 0.00 0.05 0.01 69 1020.7
20210918120551 64 82 1.0 3.0 0.00 0.05 0.01 69 1020.8
20210918120051 64 73 1.0 2.0 0.00 0.05 0.01 70 1020.8
20210918115551 63 72 0.0 2.0 0.00 0.05 0.01 70 1020.9
20210918115050 63 72 1.0 5.0 0.00 0.05 0.01 70 1020.9
20210918114551 64 72 0.0 5.0 0.00 0.05 0.01 70 1020.9
20210918114051 63 72 1.0 2.0 0.00 0.05 0.01 72 1020.9
20210918113551 62 72 1.0 3.0 0.00 0.05 0.01 72 1021.0
20210918113051 62 72 1.0 3.0 0.00 0.05 0.01 73 1021.0
20210918112552 62 71 2.0 9.0 0.00 0.05 0.01 72 1021.0
20210918112051 63 89 6.0 8.0 0.00 0.05 0.01 71 1021.0
20210918111552 63 70 3.0 6.0 0.00 0.05 0.01 72 1020.9
20210918111051 62 69 6.0 8.0 0.00 0.05 0.01 71 1021.0
20210918110552 62 53 3.0 7.0 0.00 0.05 0.01 72 1020.8
20210918110051 62 57 1.0 3.0 0.00 0.05 0.01 75 1020.9
20210918105551 61 57 1.0 3.0 0.00 0.05 0.01 74 1020.9
20210918105051 61 57 1.0 6.0 0.00 0.05 0.01 74 1020.9
20210918104551 61 55 1.0 5.0 0.00 0.05 0.01 74 1020.9
20210918104051 61 55 3.0 8.0 0.00 0.05 0.01 73 1020.9
20210918103551 62 40 5.0 9.0 0.00 0.05 0.01 73 1020.9
20210918103051 62 48 3.0 9.0 0.00 0.05 0.01 74 1020.8
20210918102551 62 88 3.0 7.0 0.00 0.05 0.01 76 1020.8
20210918102051 62 79 3.0 6.0 0.00 0.05 0.01 75 1020.9
20210918101551 62 65 3.0 5.0 0.00 0.05 0.01 76 1020.9
20210918101051 62 65 0.0 2.0 0.00 0.05 0.01 76 1020.9
20210918100551 61 65 0.0 2.0 0.00 0.05 0.01 80 1021.0
20210918100051 60 65 1.0 3.0 0.00 0.05 0.01 78 1021.0
20210918095553 60 65 2.0 5.0 0.00 0.05 0.01 78 1020.9
20210918095051 60 65 0.0 1.0 0.00 0.05 0.01 79 1020.9
20210918094551 60 65 1.0 2.0 0.00 0.05 0.01 79 1020.9
20210918094051 60 65 3.0 5.0 0.00 0.05 0.01 79 1020.8
20210918093552 60 66 1.0 3.0 0.00 0.05 0.01 79 1020.8
20210918093051 59 66 1.0 3.0 0.00 0.05 0.01 80 1020.8
20210918092551 60 66 1.0 5.0 0.00 0.05 0.01 79 1020.7
20210918092051 60 66 0.0 6.0 0.00 0.05 0.01 77 1020.6
20210918091552 60 38 3.0 6.0 0.00 0.05 0.01 78 1020.5
20210918091050 60 40 3.0 5.0 0.00 0.05 0.01 80 1020.4
20210918090551 59 63 0.0 5.0 0.00 0.05 0.01 81 1020.3
20210918090052 59 31 2.0 6.0 0.00 0.05 0.01 82 1020.3
20210918085551 59 31 2.0 6.0 0.00 0.05 0.01 84 1020.3
20210918085051 58 82 2.0 5.0 0.00 0.05 0.01 84 1020.3
20210918084551 57 79 3.0 7.0 0.00 0.05 0.01 85 1020.4
20210918084052 57 57 1.0 3.0 0.00 0.05 0.01 86 1020.4
20210918083551 57 57 2.0 5.0 0.00 0.05 0.01 86 1020.4
20210918083051 56 53 0.0 0.0 0.00 0.05 0.01 87 1020.4
20210918082551 56 53 0.0 0.0 0.00 0.05 0.01 87 1020.4
20210918082051 56 53 0.0 0.0 0.00 0.05 0.01 89 1020.4
20210918081552 55 53 0.0 0.0 0.00 0.05 0.01 89 1020.4
20210918081051 55 53 0.0 0.0 0.00 0.05 0.01 90 1020.4
20210918080551 54 53 0.0 0.0 0.00 0.05 0.01 90 1020.4
20210918080051 53 53 0.0 0.0 0.00 0.05 0.01 91 1020.4
20210918075551 53 53 0.0 0.0 0.00 0.05 0.01 92 1020.3
20210918075051 53 53 0.0 0.0 0.00 0.05 0.01 93 1020.2
20210918074551 53 53 0.0 0.0 0.00 0.05 0.01 93 1020.2
20210918074051 52 53 0.0 0.0 0.00 0.05 0.01 94 1020.2
20210918073551 52 53 0.0 0.0 0.00 0.05 0.01 94 1020.2
20210918073051 52 53 0.0 0.0 0.00 0.05 0.01 94 1020.3
20210918072551 52 53 0.0 0.0 0.00 0.05 0.01 94 1020.2
20210918072051 51 53 0.0 0.0 0.00 0.05 0.01 94 1020.3
20210918071551 51 53 0.0 0.0 0.00 0.05 0.01 94 1020.3
20210918071051 51 53 0.0 0.0 0.00 0.05 0.01 94 1020.2
20210918070551 51 53 0.0 0.0 0.00 0.05 0.01 95 1020.2
20210918070052 50 53 0.0 0.0 0.00 0.05 0.01 95 1020.1
20210918065551 49 53 0.0 0.0 0.00 0.05 0.01 94 1020.0
20210918065051 49 53 0.0 1.0 0.00 0.05 0.01 94 1019.9
20210918064551 49 53 0.0 2.0 0.00 0.05 0.01 94 1019.9
20210918064051 49 53 0.0 1.0 0.00 0.05 0.01 94 1019.9
20210918063551 49 53 1.0 2.0 0.00 0.05 0.01 94 1019.9
20210918063051 49 53 1.0 2.0 0.00 0.05 0.01 94 1019.8
20210918062551 49 53 0.0 2.0 0.00 0.05 0.01 94 1019.7
20210918062051 49 53 0.0 0.0 0.00 0.05 0.01 94 1019.7
20210918061552 49 53 0.0 0.0 0.00 0.05 0.01 94 1019.7
20210918061051 49 53 0.0 0.0 0.00 0.05 0.01 94 1019.6
20210918060551 49 53 0.0 0.0 0.00 0.05 0.01 94 1019.5
20210918060051 49 53 0.0 0.0 0.00 0.05 0.01 94 1019.5
20210918055553 49 53 0.0 0.0 0.00 0.05 0.01 94 1019.4
20210918055051 49 53 0.0 0.0 0.00 0.05 0.01 94 1019.3
20210918054552 49 53 0.0 0.0 0.00 0.05 0.01 93 1019.3
20210918054051 49 53 0.0 0.0 0.00 0.05 0.01 93 1019.3
20210918053552 49 53 0.0 0.0 0.00 0.05 0.01 93 1019.3
20210918053051 49 53 0.0 0.0 0.00 0.05 0.01 93 1019.2
20210918052552 49 53 0.0 0.0 0.00 0.05 0.01 93 1019.2
20210918052051 50 53 0.0 0.0 0.00 0.05 0.01 93 1019.2
20210918051551 50 53 0.0 0.0 0.00 0.05 0.01 93 1019.1
20210918051051 50 53 0.0 0.0 0.00 0.05 0.01 93 1019.1
20210918050551 50 53 0.0 0.0 0.00 0.05 0.01 93 1019.1
20210918050051 50 53 0.0 0.0 0.00 0.05 0.01 93 1019.0
20210918045551 50 53 0.0 0.0 0.00 0.05 0.01 93 1019.0
20210918045051 50 53 0.0 0.0 0.00 0.05 0.01 93 1019.0
20210918044551 50 53 0.0 0.0 0.01 0.05 0.01 93 1019.0
20210918044051 50 53 1.0 3.0 0.01 0.05 0.01 93 1019.0
20210918043551 50 53 3.0 3.0 0.01 0.05 0.01 93 1019.1
20210918043052 50 53 1.0 2.0 0.01 0.05 0.01 93 1019.0
20210918042552 50 53 2.0 3.0 0.01 0.05 0.01 93 1018.9
20210918042051 50 53 1.0 3.0 0.01 0.05 0.01 93 1019.0
20210918041551 50 53 1.0 3.0 0.01 0.05 0.01 93 1018.9
20210918041051 50 53 1.0 3.0 0.01 0.05 0.01 93 1018.9
20210918040551 50 53 1.0 3.0 0.01 0.05 0.01 93 1018.8
20210918040051 50 53 2.0 3.0 0.01 0.05 0.01 92 1018.8
20210918035551 50 53 0.0 1.0 0.01 0.05 0.01 92 1018.8
20210918035051 50 53 0.0 0.0 0.01 0.05 0.01 93 1018.7
20210918034551 51 53 0.0 0.0 0.00 0.04 0.00 92 1018.7
20210918034051 51 53 0.0 3.0 0.00 0.04 0.00 92 1018.7
20210918033551 51 53 2.0 3.0 0.00 0.04 0.00 92 1018.7
20210918033051 51 53 1.0 2.0 0.00 0.04 0.00 92 1018.7
20210918032552 51 53 0.0 2.0 0.00 0.04 0.00 92 1018.7
20210918032051 51 53 0.0 3.0 0.00 0.04 0.00 92 1018.7
20210918031551 51 53 1.0 2.0 0.00 0.04 0.00 92 1018.6
20210918031051 51 53 1.0 3.0 0.00 0.04 0.00 92 1018.7
20210918030552 51 53 3.0 5.0 0.00 0.04 0.00 92 1018.8
20210918030051 51 53 3.0 5.0 0.00 0.04 0.00 92 1018.7
20210918025551 51 53 3.0 5.0 0.00 0.04 0.00 92 1018.6
20210918025051 51 53 3.0 5.0 0.00 0.04 0.00 92 1018.5
20210918024552 51 53 3.0 5.0 0.00 0.04 0.00 92 1018.5
20210918024052 51 53 2.0 3.0 0.00 0.04 0.00 92 1018.6
20210918023551 51 53 0.0 0.0 0.00 0.04 0.00 92 1018.6
20210918023051 51 53 0.0 1.0 0.00 0.04 0.00 92 1018.6
20210918022551 51 53 1.0 3.0 0.00 0.04 0.00 92 1018.7
20210918022051 52 53 1.0 3.0 0.00 0.04 0.00 92 1018.7
20210918021551 52 53 3.0 5.0 0.00 0.04 0.00 92 1018.6
20210918021052 52 53 1.0 6.0 0.00 0.04 0.00 92 1018.7
20210918020551 52 53 3.0 5.0 0.00 0.04 0.00 91 1018.6
20210918020051 52 53 1.0 3.0 0.00 0.04 0.00 91 1018.6
20210918015551 52 53 1.0 3.0 0.00 0.04 0.00 91 1018.7
20210918015052 52 53 5.0 6.0 0.00 0.04 0.00 91 1018.8
20210918014551 52 65 3.0 5.0 0.00 0.04 0.00 91 1018.8
20210918014051 52 65 0.0 2.0 0.00 0.04 0.00 91 1018.8
20210918013551 52 65 1.0 5.0 0.00 0.04 0.00 91 1018.8
20210918013051 53 65 2.0 3.0 0.00 0.04 0.00 91 1019.0
20210918012551 53 65 2.0 5.0 0.00 0.04 0.00 91 1018.9
20210918012051 53 65 1.0 2.0 0.00 0.04 0.00 91 1018.9
20210918011551 53 65 1.0 3.0 0.00 0.04 0.00 91 1019.0
20210918011051 53 65 3.0 5.0 0.00 0.04 0.00 91 1018.9
20210918010551 53 65 4.0 5.0 0.00 0.04 0.00 91 1018.9
20210918010052 53 65 2.0 3.0 0.00 0.04 0.00 91 1018.9
20210918005551 53 65 2.0 3.0 0.00 0.04 0.00 91 1018.9
20210918005053 54 65 2.0 5.0 0.00 0.04 0.00 91 1018.9
20210918004552 54 65 3.0 7.0 0.00 0.04 0.00 91 1018.8
20210918004052 54 50 4.0 7.0 0.00 0.04 0.00 91 1018.9
20210918003552 54 82 4.0 8.0 0.00 0.04 0.00 91 1018.9
20210918003051 54 81 4.0 8.0 0.00 0.04 0.00 91 1018.9
20210918002551 54 63 4.0 7.0 0.00 0.04 0.00 91 1018.9
20210918002051 54 63 3.0 6.0 0.00 0.04 0.00 91 1018.9
20210918001551 54 64 4.0 7.0 0.00 0.04 0.00 91 1019.0
20210918001051 54 74 1.0 3.0 0.00 0.04 0.00 91 1019.0
20210918000551 54 74 4.0 8.0 0.00 0.04 0.00 91 1019.0
20210918000051 54 68 2.0 5.0 0.00 0.04 0.00 91 1019.0
20210917235551 54 67 2.0 3.0 0.00 0.04 0.00 91 1019.0
20210917235051 54 67 3.0 6.0 0.00 0.04 0.00 91 1019.1
20210917234551 54 56 3.0 5.0 0.00 0.04 0.00 91 1019.1
20210917234051 54 55 3.0 6.0 0.00 0.04 0.00 91 1019.0
20210917233551 55 47 3.0 7.0 0.00 0.04 0.00 91 1019.1
20210917233051 55 75 3.0 8.0 0.00 0.04 0.00 91 1019.0
20210917232552 55 42 2.0 10.0 0.00 0.04 0.00 91 1019.0
20210917232051 55 77 5.0 9.0 0.00 0.04 0.00 91 1019.0
20210917231551 55 79 5.0 7.0 0.00 0.04 0.00 91 1019.0
20210917231051 55 85 6.0 12.0 0.00 0.04 0.00 91 1019.0
20210917230551 55 60 5.0 12.0 0.00 0.04 0.00 91 1019.0
20210917230051 55 79 5.0 10.0 0.00 0.04 0.00 92 1019.0
20210917225552 55 56 5.0 9.0 0.00 0.04 0.00 92 1019.0
20210917225051 55 46 5.0 9.0 0.00 0.04 0.00 92 1019.0
20210917224551 55 58 4.0 7.0 0.00 0.04 0.00 92 1019.1
20210917224051 55 56 3.0 6.0 0.00 0.04 0.00 92 1019.2
20210917223551 55 52 5.0 8.0 0.00 0.04 0.00 92 1019.2
20210917223052 55 65 4.0 8.0 0.00 0.04 0.00 92 1019.2
20210917222551 55 45 4.0 6.0 0.00 0.04 0.00 92 1019.1
20210917222051 55 44 4.0 8.0 0.00 0.04 0.00 92 1019.1
20210917221552 56 49 4.0 7.0 0.00 0.04 0.00 92 1019.0
20210917221051 56 57 2.0 8.0 0.00 0.04 0.00 92 1019.0
20210917220552 56 58 3.0 7.0 0.00 0.04 0.00 92 1019.0
20210917220052 56 45 3.0 7.0 0.00 0.04 0.00 92 1019.0
20210917215553 56 66 4.0 8.0 0.00 0.04 0.00 92 1018.9
20210917215051 56 45 5.0 7.0 0.00 0.04 0.04 92 1018.9
20210917214551 56 57 3.0 7.0 0.00 0.04 0.04 92 1018.9
20210917214051 56 57 2.0 6.0 0.00 0.04 0.04 92 1018.9
20210917213551 56 57 4.0 7.0 0.00 0.04 0.04 92 1018.9
20210917213051 56 55 5.0 7.0 0.00 0.04 0.04 91 1018.8
20210917212551 56 51 5.0 7.0 0.00 0.04 0.04 91 1018.8
20210917212051 57 49 2.0 6.0 0.00 0.04 0.04 91 1018.7
20210917211551 57 47 5.0 7.0 0.00 0.04 0.04 91 1018.8
20210917211051 57 46 3.0 6.0 0.00 0.04 0.04 91 1018.7
20210917210551 57 46 5.0 6.0 0.00 0.04 0.04 91 1018.6
20210917210051 57 44 2.0 3.0 0.00 0.04 0.04 90 1018.6
20210917205551 57 44 2.0 5.0 0.00 0.04 0.04 91 1018.6
20210917205051 57 44 1.0 5.0 0.00 0.04 0.04 91 1018.6
20210917204551 58 44 2.0 3.0 0.00 0.04 0.04 90 1018.6
20210917204052 58 44 2.0 3.0 0.00 0.04 0.04 90 1018.5
20210917203551 58 44 3.0 3.0 0.00 0.04 0.04 91 1018.4
20210917203051 58 44 1.0 3.0 0.00 0.04 0.04 91 1018.3
20210917202551 58 44 3.0 5.0 0.00 0.04 0.04 91 1018.3
20210917202052 58 44 3.0 6.0 0.00 0.04 0.04 90 1018.2
20210917201551 58 44 4.0 6.0 0.00 0.04 0.04 90 1018.1
20210917201051 58 44 4.0 6.0 0.00 0.04 0.04 90 1018.1
20210917200551 59 45 3.0 5.0 0.00 0.04 0.04 91 1018.1
20210917200051 59 45 3.0 5.0 0.00 0.04 0.04 90 1018.0
20210917195551 59 45 2.0 3.0 0.00 0.04 0.04 90 1017.9
20210917195051 59 45 3.0 5.0 0.00 0.04 0.04 90 1017.9
20210917194552 59 45 2.0 5.0 0.00 0.04 0.04 90 1017.9
20210917194052 59 45 3.0 5.0 0.00 0.04 0.04 90 1017.9
20210917193552 59 45 2.0 5.0 0.00 0.04 0.04 90 1017.8
20210917193051 59 45 2.0 6.0 0.00 0.04 0.04 90 1017.7
20210917192551 59 43 2.0 8.0 0.00 0.04 0.04 90 1017.5
20210917192051 59 82 5.0 8.0 0.00 0.04 0.04 90 1017.5
20210917191551 60 91 5.0 9.0 0.00 0.04 0.04 90 1017.4
20210917191051 60 81 3.0 6.0 0.00 0.04 0.04 90 1017.4
20210917190552 60 77 3.0 7.0 0.00 0.04 0.04 90 1017.3
20210917190052 60 85 5.0 7.0 0.00 0.04 0.04 90 1017.2
20210917185552 60 72 3.0 6.0 0.00 0.04 0.04 90 1017.2
20210917185051 60 66 2.0 7.0 0.00 0.04 0.04 90 1017.2
20210917184551 60 63 3.0 6.0 0.00 0.04 0.04 90 1017.1
20210917184051 61 60 3.0 7.0 0.00 0.04 0.04 90 1017.1
20210917183551 61 50 4.0 8.0 0.00 0.04 0.04 91 1017.1
20210917183052 61 44 6.0 9.0 0.00 0.04 0.04 91 1017.0
20210917182552 61 45 5.0 8.0 0.00 0.04 0.04 91 1017.0
20210917182051 62 88 3.0 7.0 0.00 0.04 0.04 91 1017.0
20210917181552 62 64 1.0 6.0 0.00 0.04 0.04 92 1017.0
20210917181051 62 34 1.0 5.0 0.00 0.04 0.04 92 1016.9
20210917180552 63 241 1.0 5.0 0.00 0.04 0.04 92 1016.9
20210917180051 63 239 5.0 7.0 0.01 0.04 0.04 92 1016.8
20210917175553 63 229 5.0 6.0 0.01 0.04 0.04 92 1016.8
20210917175052 63 229 5.0 6.0 0.01 0.04 0.04 92 1016.8
20210917174551 63 229 5.0 6.0 0.01 0.04 0.04 92 1016.7
20210917174052 63 229 5.0 6.0 0.01 0.04 0.04 92 1016.6
20210917173552 63 229 5.0 6.0 0.02 0.04 0.04 92 1016.6
20210917173052 63 229 2.0 5.0 0.02 0.04 0.04 92 1016.5
20210917172551 63 229 2.0 3.0 0.02 0.04 0.04 92 1016.4
20210917172051 63 229 2.0 3.0 0.02 0.04 0.04 92 1016.4
20210917171551 63 229 0.0 0.0 0.02 0.04 0.04 92 1016.4
20210917171051 63 229 0.0 1.0 0.02 0.04 0.04 92 1016.3
20210917170551 63 229 0.0 2.0 0.02 0.04 0.04 92 1016.4
20210917170051 63 229 1.0 3.0 0.02 0.04 0.03 92 1016.3
20210917165551 63 229 2.0 5.0 0.02 0.04 0.03 92 1016.3
20210917165051 63 229 2.0 5.0 0.02 0.04 0.03 92 1016.3
20210917164551 63 229 1.0 3.0 0.02 0.04 0.03 92 1016.3
20210917164052 63 229 2.0 5.0 0.02 0.04 0.03 92 1016.2
20210917163551 63 229 4.0 6.0 0.02 0.03 0.02 92 1016.2
20210917163052 63 228 6.0 9.0 0.01 0.03 0.02 92 1016.1
20210917162552 63 232 7.0 9.0 0.01 0.03 0.02 92 1016.0
20210917162051 63 249 6.0 12.0 0.01 0.03 0.02 92 1015.9
20210917161552 64 223 8.0 12.0 0.01 0.03 0.02 92 1015.9
20210917161052 64 226 9.0 12.0 0.01 0.03 0.02 92 1015.9
20210917160552 64 231 7.0 10.0 0.01 0.02 0.02 92 1015.9
20210917160051 64 228 7.0 9.0 0.01 0.02 0.02 92 1015.8
20210917155552 64 222 8.0 12.0 0.01 0.02 0.02 92 1015.7
20210917155051 64 227 9.0 12.0 0.00 0.01 0.01 92 1015.8
20210917154551 64 235 7.0 9.0 0.00 0.01 0.01 92 1015.8
20210917154051 64 237 7.0 12.0 0.00 0.01 0.01 92 1015.8
20210917153551 65 254 8.0 12.0 0.00 0.01 0.01 92 1015.9
20210917153051 65 260 6.0 10.0 0.00 0.01 0.01 92 1015.9
20210917152551 65 253 7.0 12.0 0.00 0.01 0.01 92 1015.9
20210917152052 65 256 8.0 13.0 0.01 0.01 0.01 93 1015.9
20210917151552 65 255 6.0 12.0 0.01 0.01 0.01 93 1015.9
20210917151051 64 276 6.0 13.0 0.01 0.01 0.01 93 1015.9
20210917150552 64 248 9.0 14.0 0.01 0.01 0.01 92 1016.0